TimeMST,TemperatureF,Dew PointF,Humidity,Sea Level PressureIn,VisibilityMPH,Wind Direction,Wind SpeedMPH,Gust SpeedMPH,PrecipitationIn,Events,Conditions,WindDirDegrees,DateUTC
12:53 AM,21.0,18.0,88,30.53,10.0,West,4.6,-,N/A,,Clear,270,2012-02-03 07:53:00
1:53 AM,21.0,18.0,88,30.55,10.0,SE,4.6,-,N/A,,Clear,140,2012-02-03 08:53:00
2:53 AM,21.0,18.0,88,30.56,10.0,WSW,3.5,-,N/A,,Clear,240,2012-02-03 09:53:00
3:53 AM,19.0,16.0,88,30.58,10.0,Calm,Calm,-,N/A,,Clear,0,2012-02-03 10:53:00
4:53 AM,19.0,16.0,88,30.58,10.0,Calm,Calm,-,N/A,,Clear,0,2012-02-03 11:53:00
5:53 AM,19.0,15.1,85,30.59,10.0,WNW,3.5,-,N/A,,Clear,290,2012-02-03 12:53:00
6:53 AM,16.0,12.9,88,30.61,10.0,Calm,Calm,-,N/A,,Clear,0,2012-02-03 13:53:00
7:53 AM,16.0,14.0,92,30.63,10.0,West,4.6,-,N/A,,Clear,270,2012-02-03 14:53:00
8:53 AM,19.9,17.1,89,30.62,10.0,Calm,Calm,-,N/A,,Clear,0,2012-02-03 15:53:00
9:53 AM,21.9,18.0,85,30.63,10.0,Calm,Calm,-,N/A,,Clear,0,2012-02-03 16:53:00
10:53 AM,26.1,19.9,78,30.62,10.0,Calm,Calm,-,N/A,,Clear,0,2012-02-03 17:53:00
11:53 AM,28.9,21.0,72,30.62,10.0,Calm,Calm,-,N/A,,Clear,0,2012-02-03 18:53:00
12:53 PM,28.9,21.9,75,30.61,10.0,Calm,Calm,-,N/A,,Clear,0,2012-02-03 19:53:00
1:53 PM,33.1,21.9,64,30.57,10.0,Calm,Calm,-,N/A,,Clear,0,2012-02-03 20:53:00
2:53 PM,33.1,21.9,64,30.55,10.0,Calm,Calm,-,N/A,,Clear,0,2012-02-03 21:53:00
3:53 PM,36.0,21.9,57,30.55,10.0,Calm,Calm,-,N/A,,Clear,0,2012-02-03 22:53:00
4:53 PM,34.0,21.0,59,30.55,10.0,Calm,Calm,-,N/A,,Clear,0,2012-02-03 23:53:00
5:53 PM,28.9,19.9,69,30.55,10.0,WSW,3.5,-,N/A,,Clear,240,2012-02-04 00:53:00
6:53 PM,27.0,19.9,75,30.56,10.0,SW,3.5,-,N/A,,Clear,230,2012-02-04 01:53:00
7:53 PM,25.0,19.0,78,30.57,10.0,Calm,Calm,-,N/A,,Clear,0,2012-02-04 02:53:00
8:53 PM,24.1,18.0,77,30.57,10.0,Calm,Calm,-,N/A,,Clear,0,2012-02-04 03:53:00
9:53 PM,21.9,17.1,82,30.57,10.0,Calm,Calm,-,N/A,,Clear,0,2012-02-04 04:53:00
10:53 PM,19.0,16.0,88,30.56,10.0,Calm,Calm,-,N/A,,Clear,0,2012-02-04 05:53:00
11:53 PM,19.9,16.0,85,30.57,10.0,Calm,Calm,-,N/A,,Clear,0,2012-02-04 06:53:00